Year,Month,Day,Hour,Minute,Value (Times are PST for temperature in C)
2015,07,31,00,00,21.00
2015,07,31,00,01,20.90
2015,07,31,00,02,20.90
2015,07,31,00,03,20.90
2015,07,31,00,04,20.80
2015,07,31,00,05,20.80
2015,07,31,00,06,20.80
2015,07,31,00,07,20.70
2015,07,31,00,08,20.70
2015,07,31,00,09,20.70
2015,07,31,00,10,20.70
2015,07,31,00,11,20.60
2015,07,31,00,12,20.60
2015,07,31,00,13,20.60
2015,07,31,00,14,20.60
2015,07,31,00,15,20.60
2015,07,31,00,16,20.60
2015,07,31,00,17,20.60
2015,07,31,00,18,20.60
2015,07,31,00,19,20.60
2015,07,31,00,20,20.60
2015,07,31,00,21,20.50
2015,07,31,00,22,20.50
2015,07,31,00,23,20.50
2015,07,31,00,24,20.40
2015,07,31,00,25,20.40
2015,07,31,00,26,20.40
2015,07,31,00,27,20.40
2015,07,31,00,28,20.40
2015,07,31,00,29,20.40
2015,07,31,00,30,20.40
2015,07,31,00,31,20.40
2015,07,31,00,32,20.40
2015,07,31,00,33,20.40
2015,07,31,00,34,20.40
2015,07,31,00,35,20.40
2015,07,31,00,36,20.40
2015,07,31,00,37,20.40
2015,07,31,00,38,20.40
2015,07,31,00,39,20.30
2015,07,31,00,40,20.30
2015,07,31,00,41,20.30
2015,07,31,00,42,20.30
2015,07,31,00,43,20.30
2015,07,31,00,44,20.30
2015,07,31,00,45,20.20
2015,07,31,00,46,20.20
2015,07,31,00,47,20.20
2015,07,31,00,48,20.20
2015,07,31,00,49,20.20
2015,07,31,00,50,20.10
2015,07,31,00,51,20.10
2015,07,31,00,52,20.10
2015,07,31,00,53,20.10
2015,07,31,00,54,20.10
2015,07,31,00,55,20.10
2015,07,31,00,56,20.00
2015,07,31,00,57,20.00
2015,07,31,00,58,20.00
2015,07,31,00,59,20.00
2015,07,31,01,00,20.00
2015,07,31,01,01,20.10
2015,07,31,01,02,20.10
2015,07,31,01,03,20.10
2015,07,31,01,04,20.10
2015,07,31,01,05,20.10
2015,07,31,01,06,20.30
2015,07,31,01,07,20.40
2015,07,31,01,08,20.50
2015,07,31,01,09,20.60
2015,07,31,01,10,20.70
2015,07,31,01,11,20.90
2015,07,31,01,12,21.20
2015,07,31,01,13,21.60
2015,07,31,01,14,22.00
2015,07,31,01,15,22.30
2015,07,31,01,16,22.60
2015,07,31,01,17,22.80
2015,07,31,01,18,23.00
2015,07,31,01,19,23.20
2015,07,31,01,20,23.30
2015,07,31,01,21,23.40
2015,07,31,01,22,23.50
2015,07,31,01,23,23.60
2015,07,31,01,24,23.60
2015,07,31,01,25,23.60
2015,07,31,01,26,23.70
2015,07,31,01,27,23.70
2015,07,31,01,28,23.70
2015,07,31,01,29,23.70
2015,07,31,01,30,23.70
2015,07,31,01,31,23.70
2015,07,31,01,32,23.70
2015,07,31,01,33,23.70
2015,07,31,01,34,23.70
2015,07,31,01,35,23.60
2015,07,31,01,36,23.60
2015,07,31,01,37,23.60
2015,07,31,01,38,23.60
2015,07,31,01,39,23.60
2015,07,31,01,40,23.60
2015,07,31,01,41,23.60
2015,07,31,01,42,23.60
2015,07,31,01,43,23.60
2015,07,31,01,44,23.60
2015,07,31,01,45,23.60
2015,07,31,01,46,23.50
2015,07,31,01,47,23.50
2015,07,31,01,48,23.50
2015,07,31,01,49,23.50
2015,07,31,01,50,23.50
2015,07,31,01,51,23.50
2015,07,31,01,52,23.50
2015,07,31,01,53,23.50
2015,07,31,01,54,23.40
2015,07,31,01,55,23.40
2015,07,31,01,56,23.40
2015,07,31,01,57,23.40
2015,07,31,01,58,23.30
2015,07,31,01,59,23.30
2015,07,31,02,00,23.30
2015,07,31,02,01,23.30
2015,07,31,02,02,23.30
2015,07,31,02,03,23.20
2015,07,31,02,04,23.20
2015,07,31,02,05,23.20
2015,07,31,02,06,23.20
2015,07,31,02,07,23.20
2015,07,31,02,08,23.10
2015,07,31,02,09,23.10
2015,07,31,02,10,23.10
2015,07,31,02,11,23.10
2015,07,31,02,12,23.00
2015,07,31,02,13,23.00
2015,07,31,02,14,23.00
2015,07,31,02,15,23.00
2015,07,31,02,16,23.00
2015,07,31,02,17,23.00
2015,07,31,02,18,23.00
2015,07,31,02,19,23.00
2015,07,31,02,20,23.00
2015,07,31,02,21,22.90
2015,07,31,02,22,22.90
2015,07,31,02,23,22.90
2015,07,31,02,24,22.90
2015,07,31,02,25,22.90
2015,07,31,02,26,22.90
2015,07,31,02,27,22.80
2015,07,31,02,28,22.80
2015,07,31,02,29,22.80
2015,07,31,02,30,22.80
2015,07,31,02,31,22.80
2015,07,31,02,32,22.80
2015,07,31,02,33,22.80
2015,07,31,02,34,22.70
2015,07,31,02,35,22.70
2015,07,31,02,36,22.70
2015,07,31,02,37,22.70
2015,07,31,02,38,22.70
2015,07,31,02,39,22.70
2015,07,31,02,40,22.70
2015,07,31,02,41,22.70
2015,07,31,02,42,22.70
2015,07,31,02,43,22.70
2015,07,31,02,44,22.60
2015,07,31,02,45,22.60
2015,07,31,02,46,22.60
2015,07,31,02,47,22.60
2015,07,31,02,48,22.60
2015,07,31,02,49,22.60
2015,07,31,02,50,22.60
2015,07,31,02,51,22.60
2015,07,31,02,52,22.60
2015,07,31,02,53,22.60
2015,07,31,02,54,22.60
2015,07,31,02,55,22.60
2015,07,31,02,56,22.60
2015,07,31,02,57,22.60
2015,07,31,02,58,22.60
2015,07,31,02,59,22.60
2015,07,31,03,00,22.60
2015,07,31,03,01,22.60
2015,07,31,03,02,22.60
2015,07,31,03,03,22.60
2015,07,31,03,04,22.60
2015,07,31,03,05,22.60
2015,07,31,03,06,22.50
2015,07,31,03,07,22.50
2015,07,31,03,08,22.50
2015,07,31,03,09,22.50
2015,07,31,03,10,22.40
2015,07,31,03,11,22.40
2015,07,31,03,12,22.40
2015,07,31,03,13,22.40
2015,07,31,03,14,22.40
2015,07,31,03,15,22.40
2015,07,31,03,16,22.30
2015,07,31,03,17,22.30
2015,07,31,03,18,22.30
2015,07,31,03,19,22.30
2015,07,31,03,20,22.30
2015,07,31,03,21,22.30
2015,07,31,03,22,22.30
2015,07,31,03,23,22.30
2015,07,31,03,24,22.30
2015,07,31,03,25,22.30
2015,07,31,03,26,22.30
2015,07,31,03,27,22.30
2015,07,31,03,28,22.30
2015,07,31,03,29,22.30
2015,07,31,03,30,22.30
2015,07,31,03,31,22.30
2015,07,31,03,32,22.30
2015,07,31,03,33,22.30
2015,07,31,03,34,22.30
2015,07,31,03,35,22.30
2015,07,31,03,36,22.30
2015,07,31,03,37,22.30
2015,07,31,03,38,22.40
2015,07,31,03,39,22.40
2015,07,31,03,40,22.40
2015,07,31,03,41,22.40
2015,07,31,03,42,22.40
2015,07,31,03,43,22.40
2015,07,31,03,44,22.40
2015,07,31,03,45,22.30
2015,07,31,03,46,22.30
2015,07,31,03,47,22.30
2015,07,31,03,48,22.30
2015,07,31,03,49,22.30
2015,07,31,03,50,22.30
2015,07,31,03,51,22.30
2015,07,31,03,52,22.30
2015,07,31,03,53,22.30
2015,07,31,03,54,22.30
2015,07,31,03,55,22.30
2015,07,31,03,56,22.20
2015,07,31,03,57,22.20
2015,07,31,03,58,22.20
2015,07,31,03,59,22.20
2015,07,31,04,00,22.20
2015,07,31,04,01,22.20
2015,07,31,04,02,22.20
2015,07,31,04,03,22.10
2015,07,31,04,04,22.10
2015,07,31,04,05,22.10
2015,07,31,04,06,22.10
2015,07,31,04,07,22.10
2015,07,31,04,08,22.10
2015,07,31,04,09,22.10
2015,07,31,04,10,22.10
2015,07,31,04,11,22.10
2015,07,31,04,12,22.10
2015,07,31,04,13,22.10
2015,07,31,04,14,22.00
2015,07,31,04,15,22.00
2015,07,31,04,16,22.00
2015,07,31,04,17,22.00
2015,07,31,04,18,22.00
2015,07,31,04,19,22.00
2015,07,31,04,20,22.00
2015,07,31,04,21,22.00
2015,07,31,04,22,22.00
2015,07,31,04,23,22.00
2015,07,31,04,24,22.00
2015,07,31,04,25,21.90
2015,07,31,04,26,21.90
2015,07,31,04,27,21.90
2015,07,31,04,28,21.90
2015,07,31,04,29,21.90
2015,07,31,04,30,21.90
2015,07,31,04,31,21.80
2015,07,31,04,32,21.80
2015,07,31,04,33,21.80
2015,07,31,04,34,21.80
2015,07,31,04,35,21.70
2015,07,31,04,36,21.70
2015,07,31,04,37,21.70
2015,07,31,04,38,21.70
2015,07,31,04,39,21.70
2015,07,31,04,40,21.60
2015,07,31,04,41,21.60
2015,07,31,04,42,21.60
2015,07,31,04,43,21.60
2015,07,31,04,44,21.60
2015,07,31,04,45,21.60
2015,07,31,04,46,21.60
2015,07,31,04,47,21.60
2015,07,31,04,48,21.50
2015,07,31,04,49,21.50
2015,07,31,04,50,21.50
2015,07,31,04,51,21.40
2015,07,31,04,52,21.40
2015,07,31,04,53,21.40
2015,07,31,04,54,21.40
2015,07,31,04,55,21.40
2015,07,31,04,56,21.40
2015,07,31,04,57,21.40
2015,07,31,04,58,21.40
2015,07,31,04,59,21.40
2015,07,31,05,00,21.40
2015,07,31,05,01,21.30
2015,07,31,05,02,21.30
2015,07,31,05,03,21.30
2015,07,31,05,04,21.30
2015,07,31,05,05,21.30
2015,07,31,05,06,21.20
2015,07,31,05,07,21.20
2015,07,31,05,08,21.10
2015,07,31,05,09,21.10
2015,07,31,05,10,21.10
2015,07,31,05,11,21.10
2015,07,31,05,12,21.10
2015,07,31,05,13,21.00
2015,07,31,05,14,21.00
2015,07,31,05,15,20.90
2015,07,31,05,16,20.90
2015,07,31,05,17,20.90
2015,07,31,05,18,20.80
2015,07,31,05,19,20.80
2015,07,31,05,20,20.80
2015,07,31,05,21,20.80
2015,07,31,05,22,20.80
2015,07,31,05,23,20.80
2015,07,31,05,24,20.80
2015,07,31,05,25,20.80
2015,07,31,05,26,20.80
2015,07,31,05,27,20.80
2015,07,31,05,28,20.80
2015,07,31,05,29,20.80
2015,07,31,05,30,20.80
2015,07,31,05,31,20.80
2015,07,31,05,32,20.80
2015,07,31,05,33,20.80
2015,07,31,05,34,20.80
2015,07,31,05,35,20.70
2015,07,31,05,36,20.70
2015,07,31,05,37,20.70
2015,07,31,05,38,20.60
2015,07,31,05,39,20.60
2015,07,31,05,40,20.60
2015,07,31,05,41,20.50
2015,07,31,05,42,20.50
2015,07,31,05,43,20.50
2015,07,31,05,44,20.50
2015,07,31,05,45,20.50
2015,07,31,05,46,20.40
2015,07,31,05,47,20.40
2015,07,31,05,48,20.40
2015,07,31,05,49,20.40
2015,07,31,05,50,20.30
2015,07,31,05,51,20.30
2015,07,31,05,52,20.30
2015,07,31,05,53,20.30
2015,07,31,05,54,20.30
2015,07,31,05,55,20.40
2015,07,31,05,56,20.40
2015,07,31,05,57,20.40
2015,07,31,05,58,20.40
2015,07,31,05,59,20.40
2015,07,31,06,00,20.50
2015,07,31,06,01,20.50
2015,07,31,06,02,20.50
2015,07,31,06,03,20.50
2015,07,31,06,04,20.60
2015,07,31,06,05,20.60
2015,07,31,06,06,20.60
2015,07,31,06,07,20.60
2015,07,31,06,08,20.70
2015,07,31,06,09,20.70
2015,07,31,06,10,20.70
2015,07,31,06,11,20.70
2015,07,31,06,12,20.70
2015,07,31,06,13,20.80
2015,07,31,06,14,20.80
2015,07,31,06,15,20.80
2015,07,31,06,16,20.80
2015,07,31,06,17,20.80
2015,07,31,06,18,20.70
2015,07,31,06,19,20.70
2015,07,31,06,20,20.70
2015,07,31,06,21,20.70
2015,07,31,06,22,20.70
2015,07,31,06,23,20.70
2015,07,31,06,24,20.70
2015,07,31,06,25,20.70
2015,07,31,06,26,20.70
2015,07,31,06,27,20.70
2015,07,31,06,28,20.70
2015,07,31,06,29,20.70
2015,07,31,06,30,20.70
2015,07,31,06,31,20.70
2015,07,31,06,32,20.70
2015,07,31,06,33,20.70
2015,07,31,06,34,20.60
2015,07,31,06,35,20.60
2015,07,31,06,36,20.60
2015,07,31,06,37,20.60
2015,07,31,06,38,20.50
2015,07,31,06,39,20.50
2015,07,31,06,40,20.40
2015,07,31,06,41,20.40
2015,07,31,06,42,20.40
2015,07,31,06,43,20.40
2015,07,31,06,44,20.40
2015,07,31,06,45,20.40
2015,07,31,06,46,20.40
2015,07,31,06,47,20.40
2015,07,31,06,48,20.40
2015,07,31,06,49,20.40
2015,07,31,06,50,20.40
2015,07,31,06,51,20.40
2015,07,31,06,52,20.40
2015,07,31,06,53,20.40
2015,07,31,06,54,20.40
2015,07,31,06,55,20.40
2015,07,31,06,56,20.40
2015,07,31,06,57,20.50
2015,07,31,06,58,20.50
2015,07,31,06,59,20.50
2015,07,31,07,00,20.60
2015,07,31,07,01,20.60
2015,07,31,07,02,20.70
2015,07,31,07,03,20.70
2015,07,31,07,04,20.70
2015,07,31,07,05,20.70
2015,07,31,07,06,20.80
2015,07,31,07,07,20.80
2015,07,31,07,08,20.80
2015,07,31,07,09,20.80
2015,07,31,07,10,20.90
2015,07,31,07,11,20.90
2015,07,31,07,12,21.00
2015,07,31,07,13,21.00
2015,07,31,07,14,21.10
2015,07,31,07,15,21.10
2015,07,31,07,16,21.10
2015,07,31,07,17,21.20
2015,07,31,07,18,21.20
2015,07,31,07,19,21.20
2015,07,31,07,20,21.20
2015,07,31,07,21,21.30
2015,07,31,07,22,21.30
2015,07,31,07,23,21.30
2015,07,31,07,24,21.30
2015,07,31,07,25,21.40
2015,07,31,07,26,21.40
2015,07,31,07,27,21.50
2015,07,31,07,28,21.50
2015,07,31,07,29,21.60
2015,07,31,07,30,21.60
2015,07,31,07,31,21.50
2015,07,31,07,32,21.50
2015,07,31,07,33,21.50
2015,07,31,07,34,21.40
2015,07,31,07,35,21.40
2015,07,31,07,36,21.40
2015,07,31,07,37,21.30
2015,07,31,07,38,21.30
2015,07,31,07,39,21.30
2015,07,31,07,40,21.30
2015,07,31,07,41,21.30
2015,07,31,07,42,21.30
2015,07,31,07,43,21.30
2015,07,31,07,44,21.30
2015,07,31,07,45,21.30
2015,07,31,07,46,21.30
2015,07,31,07,47,21.40
2015,07,31,07,48,21.40
2015,07,31,07,49,21.50
2015,07,31,07,50,21.50
2015,07,31,07,51,21.60
2015,07,31,07,52,21.60
2015,07,31,07,53,21.60
2015,07,31,07,54,21.60
2015,07,31,07,55,21.60
2015,07,31,07,56,21.60
2015,07,31,07,57,21.70
2015,07,31,07,58,21.70
2015,07,31,07,59,21.70
2015,07,31,08,00,21.70
2015,07,31,08,01,21.70
2015,07,31,08,02,21.70
2015,07,31,08,03,21.80
2015,07,31,08,04,21.80
2015,07,31,08,05,21.80
2015,07,31,08,06,21.80
2015,07,31,08,07,21.80
2015,07,31,08,08,21.80
2015,07,31,08,09,21.90
2015,07,31,08,10,21.90
2015,07,31,08,11,21.90
2015,07,31,08,12,21.90
2015,07,31,08,13,21.90
2015,07,31,08,14,22.00
2015,07,31,08,15,22.00
2015,07,31,08,16,22.10
2015,07,31,08,17,22.10
2015,07,31,08,18,22.10
2015,07,31,08,19,22.20
2015,07,31,08,20,22.20
2015,07,31,08,21,22.20
2015,07,31,08,22,22.20
2015,07,31,08,23,22.20
2015,07,31,08,24,22.20
2015,07,31,08,25,22.20
2015,07,31,08,26,22.20
2015,07,31,08,27,22.30
2015,07,31,08,28,22.30
2015,07,31,08,29,22.30
2015,07,31,08,30,22.30
2015,07,31,08,31,22.30
2015,07,31,08,32,22.30
2015,07,31,08,33,22.30
2015,07,31,08,34,22.30
2015,07,31,08,35,22.40
2015,07,31,08,36,22.40
2015,07,31,08,37,22.40
2015,07,31,08,38,22.40
2015,07,31,08,39,22.40
2015,07,31,08,40,22.40
2015,07,31,08,41,22.40
2015,07,31,08,42,22.40
2015,07,31,08,43,22.40
2015,07,31,08,44,22.40
2015,07,31,08,45,22.40
2015,07,31,08,46,22.40
2015,07,31,08,47,22.40
2015,07,31,08,48,22.40
2015,07,31,08,49,22.40
2015,07,31,08,50,22.40
2015,07,31,08,51,22.40
2015,07,31,08,52,22.40
2015,07,31,08,53,22.40
2015,07,31,08,54,22.30
2015,07,31,08,55,22.40
2015,07,31,08,56,22.40
2015,07,31,08,57,22.30
2015,07,31,08,58,22.30
2015,07,31,08,59,22.30
2015,07,31,09,00,22.40
2015,07,31,09,01,22.40
2015,07,31,09,02,22.40
2015,07,31,09,03,22.50
2015,07,31,09,04,22.50
2015,07,31,09,05,22.50
2015,07,31,09,06,22.60
2015,07,31,09,07,22.60
2015,07,31,09,08,22.60
2015,07,31,09,09,22.60
2015,07,31,09,10,22.70
2015,07,31,09,11,22.70
2015,07,31,09,12,22.70
2015,07,31,09,13,22.70
2015,07,31,09,14,22.70
2015,07,31,09,15,22.70
2015,07,31,09,16,22.70
2015,07,31,09,17,22.60
2015,07,31,09,18,22.70
2015,07,31,09,19,22.70
2015,07,31,09,20,22.70
2015,07,31,09,21,22.70
2015,07,31,09,22,22.70
2015,07,31,09,23,22.70
2015,07,31,09,24,22.70
2015,07,31,09,25,22.80
2015,07,31,09,26,22.80
2015,07,31,09,27,22.90
2015,07,31,09,28,22.90
2015,07,31,09,29,22.90
2015,07,31,09,30,23.00
2015,07,31,09,31,23.00
2015,07,31,09,32,23.00
2015,07,31,09,33,23.00
2015,07,31,09,34,22.90
2015,07,31,09,35,22.80
2015,07,31,09,36,22.80
2015,07,31,09,37,22.70
2015,07,31,09,38,22.70
2015,07,31,09,39,22.60
2015,07,31,09,40,22.60
2015,07,31,09,41,22.50
2015,07,31,09,42,22.50
2015,07,31,09,43,22.40
2015,07,31,09,44,22.40
2015,07,31,09,45,22.30
2015,07,31,09,46,22.30
2015,07,31,09,47,22.30
2015,07,31,09,48,22.20
2015,07,31,09,49,22.20
2015,07,31,09,50,22.20
2015,07,31,09,51,22.20
2015,07,31,09,52,22.20
2015,07,31,09,53,22.20
2015,07,31,09,54,22.20
2015,07,31,09,55,22.20
2015,07,31,09,56,22.30
2015,07,31,09,57,22.30
2015,07,31,09,58,22.30
2015,07,31,09,59,22.20
2015,07,31,10,00,22.20
2015,07,31,10,01,22.20
2015,07,31,10,02,22.20
2015,07,31,10,03,22.20
2015,07,31,10,04,22.20
2015,07,31,10,05,22.20
2015,07,31,10,06,22.20
2015,07,31,10,07,22.10
2015,07,31,10,08,22.10
2015,07,31,10,09,22.10
2015,07,31,10,10,22.20
2015,07,31,10,11,22.20
2015,07,31,10,12,22.20
2015,07,31,10,13,22.30
2015,07,31,10,14,22.30
2015,07,31,10,15,22.30
2015,07,31,10,16,22.30
2015,07,31,10,17,22.30
2015,07,31,10,18,22.30
2015,07,31,10,19,22.30
2015,07,31,10,20,22.30
2015,07,31,10,21,22.30
2015,07,31,10,22,22.30
2015,07,31,10,23,22.30
2015,07,31,10,24,22.40
2015,07,31,10,25,22.40
2015,07,31,10,26,22.40
2015,07,31,10,27,22.50
2015,07,31,10,28,22.50
2015,07,31,10,29,22.60
2015,07,31,10,30,22.60
2015,07,31,10,31,22.60
2015,07,31,10,32,22.60
2015,07,31,10,33,22.60
2015,07,31,10,34,22.60
2015,07,31,10,35,22.60
2015,07,31,10,36,22.60
2015,07,31,10,37,22.60
2015,07,31,10,38,22.60
2015,07,31,10,39,22.60
2015,07,31,10,40,22.60
2015,07,31,10,41,22.60
2015,07,31,10,42,22.60
2015,07,31,10,43,22.50
2015,07,31,10,44,22.50
2015,07,31,10,45,22.60
2015,07,31,10,46,22.60
2015,07,31,10,47,22.60
2015,07,31,10,48,22.50
2015,07,31,10,49,22.40
2015,07,31,10,50,22.40
2015,07,31,10,51,22.30
2015,07,31,10,52,22.20
2015,07,31,10,53,22.10
2015,07,31,10,54,22.20
2015,07,31,10,55,22.20
2015,07,31,10,56,22.20
2015,07,31,10,57,22.30
2015,07,31,10,58,22.30
2015,07,31,10,59,22.30
2015,07,31,11,00,22.30
2015,07,31,11,01,22.40
2015,07,31,11,02,22.50
2015,07,31,11,03,22.50
2015,07,31,11,04,22.60
2015,07,31,11,05,22.70
2015,07,31,11,06,22.80
2015,07,31,11,07,22.80
2015,07,31,11,08,22.90
2015,07,31,11,09,23.00
2015,07,31,11,10,23.10
2015,07,31,11,11,23.20
2015,07,31,11,12,23.20
2015,07,31,11,13,23.30
2015,07,31,11,14,23.30
2015,07,31,11,15,23.20
2015,07,31,11,16,23.10
2015,07,31,11,17,23.10
2015,07,31,11,18,23.10
2015,07,31,11,19,23.10
2015,07,31,11,20,23.00
2015,07,31,11,21,23.00
2015,07,31,11,22,23.00
2015,07,31,11,23,23.00
2015,07,31,11,24,23.00
2015,07,31,11,25,22.90
2015,07,31,11,26,22.80
2015,07,31,11,27,22.80
2015,07,31,11,28,22.80
2015,07,31,11,29,22.80
2015,07,31,11,30,22.80
2015,07,31,11,31,22.80
2015,07,31,11,32,22.90
2015,07,31,11,33,22.90
2015,07,31,11,34,22.90
2015,07,31,11,35,23.00
2015,07,31,11,36,23.10
2015,07,31,11,37,23.20
2015,07,31,11,38,23.20
2015,07,31,11,39,23.30
2015,07,31,11,40,23.30
2015,07,31,11,41,23.30
2015,07,31,11,42,23.40
2015,07,31,11,43,23.40
2015,07,31,11,44,23.50
2015,07,31,11,45,23.50
2015,07,31,11,46,23.60
2015,07,31,11,47,23.60
2015,07,31,11,48,23.60
2015,07,31,11,49,23.60
2015,07,31,11,50,23.70
2015,07,31,11,51,23.70
2015,07,31,11,52,23.70
2015,07,31,11,53,23.80
2015,07,31,11,54,23.80
2015,07,31,11,55,23.70
2015,07,31,11,56,23.60
2015,07,31,11,57,23.60
2015,07,31,11,58,23.70
2015,07,31,11,59,23.70
2015,07,31,12,00,23.80
2015,07,31,12,01,23.90
2015,07,31,12,02,24.00
2015,07,31,12,03,24.10
2015,07,31,12,04,24.10
2015,07,31,12,05,24.20
2015,07,31,12,06,24.30
2015,07,31,12,07,24.40
2015,07,31,12,08,24.50
2015,07,31,12,09,24.60
2015,07,31,12,10,24.60
2015,07,31,12,11,24.70
2015,07,31,12,12,24.80
2015,07,31,12,13,24.80
2015,07,31,12,14,24.80
2015,07,31,12,15,24.80
2015,07,31,12,16,24.80
2015,07,31,12,17,24.80
2015,07,31,12,18,24.80
2015,07,31,12,19,24.80
2015,07,31,12,20,24.80
2015,07,31,12,21,24.70
2015,07,31,12,22,24.70
2015,07,31,12,23,24.70
2015,07,31,12,24,24.70
2015,07,31,12,25,24.70
2015,07,31,12,26,24.70
2015,07,31,12,27,24.80
2015,07,31,12,28,24.80
2015,07,31,12,29,24.80
2015,07,31,12,30,24.80
2015,07,31,12,31,24.80
2015,07,31,12,32,24.80
2015,07,31,12,33,24.80
2015,07,31,12,34,24.80
2015,07,31,12,35,24.90
2015,07,31,12,36,25.00
2015,07,31,12,37,25.10
2015,07,31,12,38,25.10
2015,07,31,12,39,25.20
2015,07,31,12,40,25.20
2015,07,31,12,41,25.20
2015,07,31,12,42,25.20
2015,07,31,12,43,25.30
2015,07,31,12,44,25.30
2015,07,31,12,45,25.40
2015,07,31,12,46,25.40
2015,07,31,12,47,25.40
2015,07,31,12,48,25.40
2015,07,31,12,49,25.40
2015,07,31,12,50,25.40
2015,07,31,12,51,25.50
2015,07,31,12,52,25.50
2015,07,31,12,53,25.50
2015,07,31,12,54,25.50
2015,07,31,12,55,25.40
2015,07,31,12,56,25.50
2015,07,31,12,57,25.50
2015,07,31,12,58,25.50
2015,07,31,12,59,25.50
2015,07,31,13,00,25.50
2015,07,31,13,01,25.60
2015,07,31,13,02,25.50
2015,07,31,13,03,25.40
2015,07,31,13,04,25.40
2015,07,31,13,05,25.50
2015,07,31,13,06,25.50
2015,07,31,13,07,25.60
2015,07,31,13,08,25.60
2015,07,31,13,09,25.60
2015,07,31,13,10,25.60
2015,07,31,13,11,25.60
2015,07,31,13,12,25.70
2015,07,31,13,13,25.60
2015,07,31,13,14,25.60
2015,07,31,13,15,25.60
2015,07,31,13,16,25.60
2015,07,31,13,17,25.70
2015,07,31,13,18,25.70
2015,07,31,13,19,25.70
2015,07,31,13,20,25.70
2015,07,31,13,21,25.80
2015,07,31,13,22,25.80
2015,07,31,13,23,25.80
2015,07,31,13,24,25.80
2015,07,31,13,25,25.80
2015,07,31,13,26,25.80
2015,07,31,13,27,25.80
2015,07,31,13,28,25.80
2015,07,31,13,29,25.90
2015,07,31,13,30,25.90
2015,07,31,13,31,26.00
2015,07,31,13,32,26.10
2015,07,31,13,33,26.10
2015,07,31,13,34,26.10
2015,07,31,13,35,26.10
2015,07,31,13,36,26.10
2015,07,31,13,37,26.00
2015,07,31,13,38,26.00
2015,07,31,13,39,26.00
2015,07,31,13,40,26.00
2015,07,31,13,41,26.00
2015,07,31,13,42,26.00
2015,07,31,13,43,26.10
2015,07,31,13,44,26.10
2015,07,31,13,45,26.10
2015,07,31,13,46,26.20
2015,07,31,13,47,26.30
2015,07,31,13,48,26.30
2015,07,31,13,49,26.40
2015,07,31,13,50,26.40
2015,07,31,13,51,26.40
2015,07,31,13,52,26.40
2015,07,31,13,53,26.40
2015,07,31,13,54,26.40
2015,07,31,13,55,26.40
2015,07,31,13,56,26.40
2015,07,31,13,57,26.30
2015,07,31,13,58,26.30
2015,07,31,13,59,26.30
2015,07,31,14,00,26.30
2015,07,31,14,01,26.30
2015,07,31,14,02,26.30
2015,07,31,14,03,26.30
2015,07,31,14,04,26.40
2015,07,31,14,05,26.40
2015,07,31,14,06,26.30
2015,07,31,14,07,26.30
2015,07,31,14,08,26.40
2015,07,31,14,09,26.50
2015,07,31,14,10,26.60
2015,07,31,14,11,26.60
2015,07,31,14,12,26.60
2015,07,31,14,13,26.60
2015,07,31,14,14,26.70
2015,07,31,14,15,26.80
2015,07,31,14,16,26.80
2015,07,31,14,17,26.80
2015,07,31,14,18,26.90
2015,07,31,14,19,26.90
2015,07,31,14,20,27.00
2015,07,31,14,21,27.10
2015,07,31,14,22,27.00
2015,07,31,14,23,27.00
2015,07,31,14,24,27.00
2015,07,31,14,25,26.90
2015,07,31,14,26,26.90
2015,07,31,14,27,26.90
2015,07,31,14,28,26.80
2015,07,31,14,29,26.80
2015,07,31,14,30,26.80
2015,07,31,14,31,26.80
2015,07,31,14,32,26.90
2015,07,31,14,33,26.90
2015,07,31,14,34,27.00
2015,07,31,14,35,27.10
2015,07,31,14,36,27.10
2015,07,31,14,37,27.20
2015,07,31,14,38,27.30
2015,07,31,14,39,27.40
2015,07,31,14,40,27.40
2015,07,31,14,41,27.50
2015,07,31,14,42,27.60
2015,07,31,14,43,27.50
2015,07,31,14,44,27.40
2015,07,31,14,45,27.30
2015,07,31,14,46,27.30
2015,07,31,14,47,27.30
2015,07,31,14,48,27.40
2015,07,31,14,49,27.40
2015,07,31,14,50,27.30
2015,07,31,14,51,27.20
2015,07,31,14,52,27.20
2015,07,31,14,53,27.20
2015,07,31,14,54,27.20
2015,07,31,14,55,27.20
2015,07,31,14,56,27.20
2015,07,31,14,57,27.30
2015,07,31,14,58,27.40
2015,07,31,14,59,27.40
2015,07,31,15,00,27.50
2015,07,31,15,01,27.50
2015,07,31,15,02,27.60
2015,07,31,15,03,27.60
2015,07,31,15,04,27.60
2015,07,31,15,05,27.50
2015,07,31,15,06,27.40
2015,07,31,15,07,27.30
2015,07,31,15,08,27.10
2015,07,31,15,09,27.00
2015,07,31,15,10,27.00
2015,07,31,15,11,26.90
2015,07,31,15,12,26.90
2015,07,31,15,13,27.00
2015,07,31,15,14,27.10
2015,07,31,15,15,27.20
2015,07,31,15,16,27.20
2015,07,31,15,17,27.20
2015,07,31,15,18,27.20
2015,07,31,15,19,27.20
2015,07,31,15,20,27.20
2015,07,31,15,21,27.20
2015,07,31,15,22,27.20
2015,07,31,15,23,27.20
2015,07,31,15,24,27.10
2015,07,31,15,25,27.10
2015,07,31,15,26,27.10
2015,07,31,15,27,27.10
2015,07,31,15,28,27.10
2015,07,31,15,29,27.10
2015,07,31,15,30,27.10
2015,07,31,15,31,27.20
2015,07,31,15,32,27.20
2015,07,31,15,33,27.30
2015,07,31,15,34,27.30
2015,07,31,15,35,27.40
2015,07,31,15,36,27.50
2015,07,31,15,37,27.70
2015,07,31,15,38,27.80
2015,07,31,15,39,27.90
2015,07,31,15,40,27.90
2015,07,31,15,41,27.90
2015,07,31,15,42,27.80
2015,07,31,15,43,27.70
2015,07,31,15,44,27.70
2015,07,31,15,45,27.70
2015,07,31,15,46,27.70
2015,07,31,15,47,27.80
2015,07,31,15,48,27.80
2015,07,31,15,49,27.80
2015,07,31,15,50,27.80
2015,07,31,15,51,27.90
2015,07,31,15,52,27.90
2015,07,31,15,53,28.00
2015,07,31,15,54,28.00
2015,07,31,15,55,28.00
2015,07,31,15,56,28.00
2015,07,31,15,57,28.00
2015,07,31,15,58,28.10
2015,07,31,15,59,28.10
2015,07,31,16,00,28.10
2015,07,31,16,01,28.20
2015,07,31,16,02,28.20
2015,07,31,16,03,28.30
2015,07,31,16,04,28.30
2015,07,31,16,05,28.30
2015,07,31,16,06,28.30
2015,07,31,16,07,28.40
2015,07,31,16,08,28.30
2015,07,31,16,09,28.30
2015,07,31,16,10,28.30
2015,07,31,16,11,28.30
2015,07,31,16,12,28.30
2015,07,31,16,13,28.40
2015,07,31,16,14,28.50
2015,07,31,16,15,28.50
2015,07,31,16,16,28.60
2015,07,31,16,17,28.70
2015,07,31,16,18,28.80
2015,07,31,16,19,28.80
2015,07,31,16,20,28.90
2015,07,31,16,21,29.00
2015,07,31,16,22,29.10
2015,07,31,16,23,29.10
2015,07,31,16,24,29.20
2015,07,31,16,25,29.30
2015,07,31,16,26,29.40
2015,07,31,16,27,29.50
2015,07,31,16,28,29.60
2015,07,31,16,29,29.70
2015,07,31,16,30,29.70
2015,07,31,16,31,29.80
2015,07,31,16,32,29.80
2015,07,31,16,33,29.80
2015,07,31,16,34,29.80
2015,07,31,16,35,29.90
2015,07,31,16,36,29.90
2015,07,31,16,37,29.80
2015,07,31,16,38,29.80
2015,07,31,16,39,29.80
2015,07,31,16,40,29.80
2015,07,31,16,41,29.90
2015,07,31,16,42,30.00
2015,07,31,16,43,30.10
2015,07,31,16,44,30.20
2015,07,31,16,45,30.20
2015,07,31,16,46,30.20
2015,07,31,16,47,30.20
2015,07,31,16,48,30.30
2015,07,31,16,49,30.30
2015,07,31,16,50,30.30
2015,07,31,16,51,30.30
2015,07,31,16,52,30.30
2015,07,31,16,53,30.30
2015,07,31,16,54,30.30
2015,07,31,16,55,30.30
2015,07,31,16,56,30.20
2015,07,31,16,57,30.30
2015,07,31,16,58,30.30
2015,07,31,16,59,30.30
2015,07,31,17,00,30.30
2015,07,31,17,01,30.40
2015,07,31,17,02,30.40
2015,07,31,17,03,30.40
2015,07,31,17,04,30.50
2015,07,31,17,05,30.50
2015,07,31,17,06,30.50
2015,07,31,17,07,30.50
2015,07,31,17,08,30.50
2015,07,31,17,09,30.50
2015,07,31,17,10,30.40
2015,07,31,17,11,30.40
2015,07,31,17,12,30.40
2015,07,31,17,13,30.40
2015,07,31,17,14,30.40
2015,07,31,17,15,30.40
2015,07,31,17,16,30.40
2015,07,31,17,17,30.30
2015,07,31,17,18,30.30
2015,07,31,17,19,30.40